Regional Weather Roundup
Issued by NWS Burlington, VT

Home | Current Version | Previous Version | Text Only | Print | Product List | Glossary On
Versions: 1 2 3 4 5 6 7 8 9 10 11 12 13 14 15 16 17 18 19 20 21 22 23 24 25 26 27 28 29 30 31 32 33 34 35 36 37 38 39 40 41 42 43 44 45 46 47 48 49 50
000
ASUS41 KBTV 211310
RWRBTV
VERMONT REGIONAL WEATHER ROUNDUP
NATIONAL WEATHER SERVICE BURLINGTON VT
900 AM EDT SUN SEP 21 2014

NOTE: "FAIR" INDICATES FEW OR NO CLOUDS BELOW 12,000 FEET WITH NO
SIGNIFICANT WEATHER AND/OR OBSTRUCTIONS TO VISIBILITY.

* THESE REPORTS ARE NOT UNDER NWS QUALITY CONTROL AND/OR DO NOT
  REPORT WEATHER SUCH AS PRECIPITATION AND FOG.

VTZ001>019-211400-
_____VERMONT_____


CITY           SKY/WX    TMP DP  RH WIND       PRES   REMARKS
BURLINGTON     PTSUNNY   68  59  73 S21G29    29.81F
MONTPELIER     SUNNY     62  57  83 S13       29.91F
MORRISVILLE    SUNNY     67  56  67 VRB3      29.84F
ST. JOHNSBURY*   N/A     61  57  87 MISG      29.87F
MIDDLEBURY*      N/A    N/A N/A N/A MISG        N/A
RUTLAND*       SUNNY     66  57  72 SE10      29.87F
SPRINGFIELD    CLOUDY    60  57  89 E3        29.91F
HIGHGATE*      FAIR      66  57  71 S14G20    29.76F
NEWPORT*       FAIR      64  56  77 S13       29.82F
BENNINGTON     MOSUNNY   70  60  70 VRB3      29.88F
SUTTON*          N/A     61 N/A N/A MISG        N/A

_____LAKE CHAMPLAIN_____


CITY           SKY/WX    TMP DP  RH WIND       PRES   REMARKS
COLCHESTER RF*   N/A     63  59  88 S30         N/A
DIAMOND ISL*     N/A     64  59  82 S15         N/A

$$

NYZ007-026>031-035-052-083-211400-
_____NORTHERN NEW YORK_____


CITY           SKY/WX    TMP DP  RH WIND       PRES   REMARKS
PLATTSBURGH    PTSUNNY   65  56  72 S15       29.77S
SARANAC LAKE   PTSUNNY   64  56  75 SW14      29.78F
MASSENA        CLOUDY    70  60  70 S14G24    29.70S
OGDENSBURG*    LGT RAIN  64  61  88 S6        29.69F
POTSDAM*       CLOUDY    70  63  78 SW8       29.72S
WATERTOWN      PTSUNNY   71  57  61 S13G20    29.70F
FT DRUM        MOSUNNY   67  57  69 S15       29.72S
ALBANY         PTSUNNY   66  61  84 S15G22    29.87F
GLENS FALLS    CLOUDY    65  60  84 SW6       29.87F

$$
NHZ002-005-011-211400-
_____NEW HAMPSHIRE_____


CITY           SKY/WX    TMP DP  RH WIND       PRES   REMARKS
LEBANON        MOSUNNY   67  60  78 S6        29.89F
KEENE          CLOUDY    63  55  77 CALM      29.93S
MT WASHINGTON  PTSUNNY   48  45  87 W38G46      N/A
PLYMOUTH       CLOUDY    57  57  99 CALM      29.93S
WHITEFIELD     SUNNY     63  55  75 CALM      29.89F

$$

_____REGIONAL QUEBEC LOCATIONS_____


CITY           SKY/WX    TMP DP  RH WIND       PRES   REMARKS
MONTREAL       CLOUDY    63  59  88 SE10      29.70S
QUEBEC CITY    CLOUDY    66  59  77 S9        29.70R
SHERBROOKE     SUNNY     66  55  68 S9G22     29.80S

_____REGIONAL ONTARIO LOCATIONS_____


CITY           SKY/WX    TMP DP  RH WIND       PRES   REMARKS
OTTAWA         PTSUNNY   66  61  82 S9        29.67F

______KEY______
VSB  - VISIBILITY IN MILES
WCI  - WIND CHILL INDEX
HX   - HEAT INDEX
$$
NNNN



USA.gov is the U.S. government's official web portal to all federal, state and local government web resources and services.